This demonstration page uses our WeatherBlox Daily Observations layout. Learn more.

Left ArrowRight Arrow

38.80484, -77.04692

Hourly Observations for May 5, 2015

Temp ( °F °C ) Dew Point ( °F °C ) Humidity (%) Winds ( mph kmh ) Pressure ( in mb ) Visibility ( mi km ) Precip ( " mm )
12:52 am 00:52 Mostly Cloudy 71 21.7 54 12.2 55 55 S 9 15 30.21 1023 10 16 0.00 0.00
1:52 am 01:52 Partly Cloudy 70 21.1 55 12.8 59 59 S 9 15 30.20 1023 10 16 0.00 0.00
2:52 am 02:52 Partly Cloudy 69 20.6 56 13.3 63 63 S 9 15 30.20 1023 10 16 0.00 0.00
3:52 am 03:52 Partly Cloudy 67 19.4 55 12.8 66 66 S 8 13 30.20 1023 10 16 0.00 0.00
4:52 am 04:52 Mostly Clear 65 18.3 54 12.2 68 68 SSW 7 11 30.20 1023 10 16 0.00 0.00
5:52 am 05:52 Partly Cloudy 65 18.3 54 12.2 68 68 SSW 7 11 30.21 1023 10 16 0.00 0.00
6:52 am 06:52 Partly Cloudy 65 18.3 55 12.8 70 70 SSW 3 6 30.23 1024 10 16 0.00 0.00
7:52 am 07:52 Partly Cloudy 68 20 57 13.9 68 68 S 7 11 30.26 1025 10 16 0.00 0.00
8:52 am 08:52 Partly Cloudy 70 21.1 56 13.3 61 61 SSW 8 13 30.27 1025 10 16 0.00 0.00
9:52 am 09:52 Partly Cloudy 72 22.2 59 15 64 64 SSE 6 9 30.27 1025 10 16 0.00 0.00
10:52 am 10:52 Partly Cloudy 75 23.9 60 15.6 60 60 SSE 6 9 30.27 1025 10 16 0.00 0.00
11:52 am 11:52 Mostly Cloudy 78 25.6 61 16.1 56 56 S 6 9 30.27 1025 10 16 0.00 0.00
12:52 pm 12:52 Mostly Cloudy 79 26.1 60 15.6 52 52 S 5 7 30.25 1024 10 16 0.00 0.00
1:52 pm 13:52 Partly Cloudy 81 27.2 61 16.1 51 51 SSE 6 9 30.23 1024 10 16 0.00 0.00
2:52 pm 14:52 Partly Cloudy 84 28.9 61 16.1 46 46 S 6 9 30.21 1023 10 16 0.00 0.00
3:52 pm 15:52 Partly Cloudy 84 28.9 60 15.6 44 44 S 6 9 30.19 1022 10 16 0.00 0.00
4:52 pm 16:52 Mostly Cloudy 82 27.8 61 16.1 49 49 Calm 30.17 1022 10 16 0.00 0.00
5:21 pm 17:21 Mostly Cloudy with Light Rain 81 27 57 14 45 45 S 6 9 30.18 1022 10 16 0.00 0.03
5:52 pm 17:52 Cloudy 79 26.1 60 15.6 52 52 W 21 33 30.18 1022 10 16 0.00 0.03
6:05 pm 18:05 Cloudy with Light Rain 75 24 63 17 65 65 W 21 33 30.18 1022 10 16 0.00 0.03
6:23 pm 18:23 Cloudy with Rain 72 22 64 18 78 78 W 25 41 30.21 1023 5 8 0.01 0.25
6:28 pm 18:28 Windy with Storms Likely 72 22 64 18 78 78 WSW 20 31 30.21 1023 4 6 0.00 0.00
6:46 pm 18:46 Cloudy with Light Rain 70 21 64 18 83 83 SW 10 17 30.18 1022 6 10 0.05 1.27
6:52 pm 18:52 Cloudy with Light Rain 71 21.7 63 17.2 76 76 SW 13 20 30.18 1022 9 14 0.05 1.27
7:52 pm 19:52 Mostly Cloudy with Light Rain 71 21.7 64 17.8 79 79 SE 6 9 30.20 1023 10 16 0.00 0.03
8:52 pm 20:52 Mostly Cloudy 70 21.1 64 17.8 82 82 SSW 6 9 30.23 1024 10 16 0.00 0.03
9:52 pm 21:52 Mostly Cloudy 68 20 63 17.2 84 84 SW 8 13 30.25 1024 10 16 0.00 0.00
10:52 pm 22:52 Mostly Cloudy 68 20 62 16.7 81 81 SW 7 11 30.24 1024 10 16 0.00 0.00
11:52 pm 23:52 Mostly Cloudy 66 18.9 61 16.1 84 84 SSW 6 9 30.24 1024 10 16 0.00 0.00

Powered by AerisWeather